Location: Julian California
(33.0790°N, 116.6010°W)
Time: 19:43:27
(UTC-07:00)

Cosmos 972 Rocket - Pass Details

Date: 14 June 2018
Orbit: 713 x 1151 km, 75.8° (Epoch: 16 October)

Event Time Altitude Azimuth Distance (km) Brightness Sun altitude
Rises 21:23:33 0° 196° (SSW) 3,215 7.0 -15.7°
Reaches altitude 10° 21:25:58 10° 197° (SSW) 2,252 6.2 -16.0°
Maximum altitude 21:30:58 80° 284° (WNW) 732 3.9 -16.8°
Drops below altitude 10° 21:35:51 10° 12° (NNE) 2,193 6.8 -17.5°
Sets 21:38:10 0° 14° (NNE) 3,125 7.6 -17.9°
